Regional Weather Roundup
Issued by NWS

Home | Current Version | Previous Version | Text Only | Print | Product List | Glossary On
Versions: 1 2 3 4 5 6 7 8 9 10 11 12 13 14 15 16 17 18 19 20 21 22 23 24 25 26 27 28 29 30 31 32 33 34 35 36 37 38 39 40 41 42 43 44 45 46 47 48 49 50
000
ASUS45 KTFX 231010
RWRMT
MONTANA REGIONAL WEATHER ROUNDUP
NATIONAL WEATHER SERVICE GREAT FALLS MT
400 AM MDT THU MAY 23 2019

NOTE: "FAIR" INDICATES FEW OR NO CLOUDS BELOW 12000 FEET WITH NO
SIGNIFICANT WEATHER AND/OR OBSTRUCTIONS TO VISIBILITY.

MTZ001>007-043-231100-
WEST OF THE DIVIDE

CITY           SKY/WX    TMP DP  RH WIND       PRES   REMARKS
KALISPELL      FAIR      40  33  76 NW5       30.07S
MISSOULA       FAIR      38  33  82 CALM      30.06S
BUTTE          FAIR      33  29  85 S3        30.07F
MULLAN PASS    FAIR      39  29  67 CALM      30.08F
ANACONDA         N/A     34  30  86 SW3       30.07S
DEER LODGE       N/A     36  34  93 CALM      30.09S
HAMILTON       FAIR      32  30  93 S3        30.05F
PLAINS           N/A     37  32  82 CALM      30.07S
RONAN            N/A     39  36  87 CALM      30.06S
THOMPSON FALLS   N/A     38  34  85 CALM      30.11S
$$

MTZ008-052>055-231100-
SOUTHWEST MONTANA

CITY           SKY/WX    TMP DP  RH WIND       PRES   REMARKS
BOZEMAN        FAIR      37  34  89 VRB3      30.05F
DILLON         CLOUDY    40  34  79 CALM      30.02F
ENNIS          CLOUDY    43  32  65 NE5G12    30.06F
W YELLOWSTONE  CLOUDY    37  30  75 N8        30.01F WCI  31
THREE FORKS      N/A     34  32  92 CALM      30.04S
TWIN BRIDGES     N/A     44  30  58 N14       30.01F
$$

MTZ009-010-012-014-046-048-049-054-231100-
EAST SLOPES AND CENTRAL MONTANA

CITY           SKY/WX    TMP DP  RH WIND       PRES   REMARKS
CUT BANK       FAIR      38  34  85 N7        30.08S
GREAT FALLS    FAIR      37  35  92 SW9       30.06S WCI  30
MALMSTROM AFB  FAIR      38  36  92 S5        30.07S
HELENA         FAIR      41  36  82 SW3       30.06S
AUGUSTA        FAIR      42  34  73 N13       30.07S
BOWMANS CRNR   FAIR      41  34  75 W5        30.07R
FAIRFIELD      FAIR      41  35  79 NW6       30.06S
RAYNESFORD     FAIR      38  33  79 CALM      30.08R
WHITE SULPHUR    N/A     28  27  93 CALM      30.08S
$$

MTZ011-013-016-021-045-047-050-051-231100-
NORTH CENTRAL MONTANA

CITY           SKY/WX    TMP DP  RH WIND       PRES   REMARKS
HAVRE          FAIR      37  33  85 E3        30.05R
LEWISTOWN      FAIR      33  29  85 SE6       30.07S WCI  28
N BAR RANCH    FAIR      39  30  70 W9        30.10R
CHINOOK          N/A     36  36 100 CALM      30.06R
GEYSER         FAIR      42  33  71 SW13      30.06R
JUDITH GAP     FAIR      36  29  75 NE3       30.07R
ROY            FAIR      38  31  75 W9        30.04R
STANFORD       FAIR      39  32  74 CALM      30.07R
WINIFRED       FAIR      43  33  67 W7        30.05R
$$

MTZ017>020-022>027-061-062-231100-
NORTHEAST MONTANA

CITY           SKY/WX    TMP DP  RH WIND       PRES   REMARKS
GLASGOW        FAIR      44  37  76 E13       30.04R
GLENDIVE       MOCLDY    41  37  86 CALM      30.10R
JORDAN           N/A     37  34  89 E6        30.04R
MALTA          CLEAR     37  37 100 CALM      30.02R
SIDNEY         FAIR      38  35  89 CALM      30.09R
WOLF POINT     FAIR      39  34  82 NE3       30.08R
POPLAR           N/A     43  36  75 CALM      30.08R
$$

MTZ028>42-056>058-231100-
SOUTHCENTRAL AND SOUTHEAST MONTANA

CITY           SKY/WX    TMP DP  RH WIND       PRES   REMARKS
BAKER          FAIR      37  35  92 W6        30.10R
BILLINGS       FAIR      46  40  79 SW12      30.06S
LIVINGSTON     MOCLDY    38  35  89 SW3       30.06F
MILES CITY     FAIR      39  37  92 S8        30.09R
BIG TIMBER     CLOUDY    41  37  87 CALM      30.08S
FORSYTH          N/A     45  39  81 CALM      30.07S
HARLOWTON      FAIR      35  32  88 W15       30.07S WCI  25
LAUREL           N/A     43  39  87 SW6       30.07R
$$

REGIONAL REPORTS...DAKOTAS

CITY           SKY/WX    TMP DP  RH WIND       PRES   REMARKS
WILLISTON      FAIR      38  34  85 CALM      30.08R
MINOT          CLOUDY    45  39  79 NW10      30.03R
DICKINSON      FAIR      40  36  86 N10       30.01S
BEACH          CLOUDY    36  36 100 N3        30.10R
CROSBY         FAIR      39  39 100 SW8       30.08R
TIOGA          FAIR      32  34 100 W5        30.09R
WATFORD CITY   FAIR      36  36 100 SW3       30.08R
BISMARCK       CLOUDY    46  43  89 N9        30.00R
GRAND FORKS    CLOUDY    46  43  89 N14       29.89R
FARGO          CLOUDY    47  46  97 NW13      29.88R
BUFFALO SD       N/A     42  37  82 NW8       30.06R
RAPID CITY     CLOUDY    40  36  86 CALM      30.07R
$$

REGIONAL REPORTS...WYOMING/IDAHO/WASHINGTON

CITY           SKY/WX    TMP DP  RH WIND       PRES   REMARKS
GILLETTE       FAIR      33  32  96 CALM      30.07F
SHERIDAN       FAIR      35  32  88 CALM      30.08S
BUFFALO WY     FAIR      39  31  72 NW5       30.08F
CODY           CLOUDY    39  36  89 S6        30.08F
IDAHO FALLS    CLOUDY    44  31  60 NE15      29.90F
SALMON         CLOUDY    45  35  68 CALM      30.00F
BOISE          CLOUDY    50  46  86 SW3       29.87F
SPOKANE        FAIR      52  35  52 N5        30.04R
$$

REGIONAL REPORTS...ALBERTA

CITY           SKY/WX    TMP DP  RH WIND       PRES   REMARKS
CALGARY        PTCLDY    46  34  61 S5        30.06S
CARDSTON         N/A     36  34  93 S3          N/A
EDMONTON       CLOUDY    54  43  66 CALM      30.02S
FORT MCMURRAY  CLOUDY    54  41  62 W8        29.99S
HIGH LEVEL     CLEAR     41  36  81 VRB2      30.06S
LETHBRIDGE     CLEAR     39  37  93 W10       30.07S
LLOYDMINSTER   CLOUDY    50  39  66 W7        30.03S
MEDICINE HAT   CLEAR     43  36  75 SW2       30.04S
MILK RIVER       N/A     39  36  87 NW8         N/A
ONEFOUR          N/A     45  28  53 NE13        N/A
PEACE RIVER    MOCLDY    50  37  62 N6        30.02F
PINCHER CREEK  CLEAR     37  34  87 MISG      30.11S
RAYMOND          N/A     43  37  81 SW8         N/A
WATERTON GATE    N/A     39  34  81 SW9         N/A
$$

REGIONAL REPORTS...SASKATCHEWAN

CITY           SKY/WX    TMP DP  RH WIND       PRES   REMARKS
CORONACH         N/A     39  34  81 SE3         N/A
CYPRESS HILLS    N/A     46  19  34 E3          N/A
ESTEVAN        CLEAR     39  36  87 W7        30.07R
MOOSE JAW        N/A     36  25  64 NW5         N/A
PRINCE ALBERT  MOCLDY    41  37  87 E6        30.08S
REGINA         PTCLDY    43  32  65 E8        30.06R
ROCKGLEN         N/A     37  30  75 S8          N/A  WCI  31
SASKATOON      MOCLDY    52  30  43 S3        30.07S
SWIFT CURRENT  CLEAR     43  25  49 SE7       30.05S
VAL MARIE        N/A     34  27  75 NE2         N/A
$$



USA.gov is the U.S. government's official web portal to all federal, state and local government web resources and services.